Regional Weather Roundup
Issued by NWS Northern Indiana

Home | Current Version | Previous Version | Graphics & Text | Print | Product List | Glossary Off
Versions: 1 2 3 4 5 6 7 8 9 10 11 12 13 14 15 16 17 18 19 20 21 22 23 24 25 26 27 28 29 30 31 32 33 34 35 36 37 38 39 40 41 42 43 44 45 46 47 48 49 50

000
ASUS43 KIWX 071800
RWRIWX

KIWX WEATHER ROUNDUP
NATIONAL WEATHER SERVICE NORTHERN INDIANA
200 PM EDT TUE JUL 07 2015

NOTE: "FAIR" INDICATES FEW OR NO CLOUDS BELOW 12,000 FEET WITH NO
SIGNIFICANT WEATHER AND/OR OBSTRUCTIONS TO VISIBILITY.

* THESE STATIONS ARE NOT UNDER NWS QUALITY CONTROL. THEY ALSO MAY NOT
  REPORT WEATHER SUCH AS PRECIPITATION OR FOG.

INZ001>027-071900-
NORTHERN INDIANA

CITY           SKY/WX    TMP DP  RH WIND       PRES   REMARKS
GARY*          CLOUDY    64  54  68 N17G30    30.03R
SOUTH BEND     CLOUDY    70  57  63 N16G24    29.96R
6HR MIN TEMP:  62; 6HR MAX TEMP:  72; 6HR PCP:  0.17;

ELKHART*       CLOUDY    66  59  77 NW7       29.95R
GOSHEN         CLOUDY    66  62  87 N10       29.94R
6HR MIN TEMP:  64; 6HR MAX TEMP:  73; 6HR PCP:  0.21;

MONTICELLO*    LGT RAIN  64  62  95 N15       29.95R
6HR MIN TEMP:  63; 6HR MAX TEMP:  73; 6HR PCP:  0.18;

ANGOLA*        CLOUDY    66  59  77 NW9       29.92R
FORT WAYNE     LGT RAIN  72  69  90 W10       29.91S
6HR MIN TEMP:  71; 6HR MAX TEMP:  77; 6HR PCP:  0.23;


$$
INZ028>050-071900-
CENTRAL INDIANA

CITY           SKY/WX    TMP DP  RH WIND       PRES   REMARKS
LAFAYETTE      LGT RAIN  65  61  87 N12G20    29.95R
6HR MIN TEMP:  63; 6HR MAX TEMP:  74; 6HR PCP:  0.18;

KOKOMO*        CLOUDY    66  64  94 N12       29.93R
6HR MIN TEMP:  66; 6HR MAX TEMP:  77; 6HR PCP:  0.78;

MUNCIE*        TSTM      72  70  93 SW13      29.93R VSB 1/2
6HR MIN TEMP:  72; 6HR MAX TEMP:  79; 6HR PCP:  1.36;

INDIANAPOLIS   HVY RAIN  70  68  93 CALM      29.93S VSB 3/4
6HR MIN TEMP:  69; 6HR MAX TEMP:  79; 6HR PCP:  1.73;


$$
MIZ043>046-050>051-056>058-064>065-071>073-077>080-071900-
SOUTHWEST LOWER MICHIGAN

CITY           SKY/WX    TMP DP  RH WIND       PRES   REMARKS
BATTLE CREEK   PTSUNNY   69  60  73 NW12      29.93S
6HR MIN TEMP:  63; 6HR MAX TEMP:  73; 6HR PCP:  0.41;

BENTON HARBOR  SUNNY     63  54  72 N13G25    29.98R
6HR MIN TEMP:  59; 6HR MAX TEMP:  64; 6HR PCP:  0.25;

COLDWATER*     CLOUDY    64  63  95 NW8       29.92S
6HR MIN TEMP:  64; 6HR MAX TEMP:  72;

HILLSDALE*     LGT RAIN  69  69 100 NW12      29.91R
6HR MIN TEMP:  69; 6HR MAX TEMP:  75;

HOLLAND        SUNNY     68  53  58 NW16G22   29.96S
6HR MIN TEMP:  60; 6HR MAX TEMP:  69; 6HR PCP:  0.03;

GRAND RAPIDS   PTSUNNY   70  56  61 NW14      29.93S
6HR MIN TEMP:  60; 6HR MAX TEMP:  71; 6HR PCP:  0.05;

KALAMAZOO      MOSUNNY   70  59  68 N15       29.93S
6HR MIN TEMP:  62; 6HR MAX TEMP:  72; 6HR PCP:  0.34;

STURGIS*       CLOUDY    64  63  94 N8G17     29.93R
THREE RIVERS*  PTSUNNY   68  61  77 N9G18     29.93F

$$
OHZ001>008-015>018-024>025-071900-
NORTHWEST OHIO

CITY           SKY/WX    TMP DP  RH WIND       PRES   REMARKS
DEFIANCE       CLOUDY    75  71  87 SW7       29.90R
6HR MIN TEMP:  72; 6HR MAX TEMP:  79; 6HR PCP:  0.28;

FINDLAY        LGT RAIN  72  70  93 W12       29.91R FOG
6HR MIN TEMP:  71; 6HR MAX TEMP:  82; 6HR PCP:  0.26;

TOLEDO EXPRESS LGT RAIN  74  72  93 SW7       29.88S
6HR MIN TEMP:  71; 6HR MAX TEMP:  78; 6HR PCP:  0.28;

TOLEDO METCALF LGT RAIN  75  70  84 SW10      29.89S
6HR MIN TEMP:  72; 6HR MAX TEMP:  81; 6HR PCP:  0.13;

LIMA           RAIN      68  66  93 SW9       29.95S FOG
6HR MIN TEMP:  67; 6HR MAX TEMP:  80; 6HR PCP:  0.54;


$$
AND FOR LAKE MICHIGAN COASTAL AND OPEN LAKE BUOY OBSERVATIONS

STATION/POSITION TEMP    WIND        PRES    VSBY  WAVE
                 AIR SEA DIR/SP/G                  HT/PER
                 (F)     (DEG/KT/KT) (MB)    (MI)  (FT/S)
CALUMET HARBOR    60     350/ 17/ 22   N/A
MICHIGAN CITY     59     340/ 22/ 25   N/A
BURNS HARBOR      59      10/ 19/ 23 1016.3R
SAINT JOSEPH      62     340/ 18/ 22 1016.3R
4 MI NW BRIDGMAN  60 64   30/ 19/ 21   N/A           7/ 2
MICHIGAN CITY     59 65   10/ 17/ 21   N/A           7/ 7

$$
&&


USA.gov is the U.S. government's official web portal to all federal, state and local government web resources and services.